DAL135 KLAX-KLAS

Flight info

Callsign DAL135
Flight time 0h 44m
Altitude 29000
Route ORCKA5 MISEN RNDRZ4
Aircraft A320/M-SDE3FGHIRWY/LB1

Departure

Time 2026-05-05 19:53
Airport Los Angeles International Airport (KLAX)

Arrival

Time 2026-05-05 20:37
Airport Harry Reid International Airport (KLAS)
Time Latitude Longitude Altitude Speed Heading
2026-05-05 19:28 33.94640 -118.40651 0 ft 0 kts 263°
2026-05-05 19:45 33.94641 -118.40644 95 ft 4 kts 263°
2026-05-05 19:46 33.94644 -118.40611 95 ft 4 kts 263°
2026-05-05 19:46 33.94647 -118.40580 96 ft 4 kts 274°
2026-05-05 19:46 33.94639 -118.40552 95 ft 4 kts 327°
2026-05-05 19:46 33.94622 -118.40544 94 ft 1 kts 353°
2026-05-05 19:47 33.94620 -118.40544 94 ft 0 kts 353°
2026-05-05 19:49 33.94646 -118.40548 95 ft 6 kts 353°
2026-05-05 19:49 33.94697 -118.40555 97 ft 9 kts 353°
2026-05-05 19:49 33.94760 -118.40574 98 ft 10 kts 339°
2026-05-05 19:50 33.94827 -118.40600 100 ft 9 kts 351°
2026-05-05 19:50 33.94863 -118.40578 101 ft 5 kts 62°
2026-05-05 19:50 33.94873 -118.40507 100 ft 12 kts 83°
2026-05-05 19:50 33.94883 -118.40409 100 ft 11 kts 85°
2026-05-05 19:51 33.94891 -118.40324 100 ft 10 kts 82°
2026-05-05 19:51 33.94899 -118.40252 100 ft 8 kts 82°
2026-05-05 19:51 33.94918 -118.40188 101 ft 9 kts 46°
2026-05-05 19:51 33.94966 -118.40173 106 ft 6 kts 356°
2026-05-05 19:52 33.95005 -118.40179 109 ft 5 kts 343°
2026-05-05 19:52 33.95015 -118.40199 109 ft 2 kts 284°
2026-05-05 19:52 33.95013 -118.40223 109 ft 4 kts 264°
2026-05-05 19:52 33.95009 -118.40268 109 ft 10 kts 264°
2026-05-05 19:53 33.94975 -118.40605 106 ft 75 kts 263°
2026-05-05 19:53 33.94885 -118.41470 108 ft 131 kts 263°
2026-05-05 19:53 33.94758 -118.42726 285 ft 159 kts 263°
2026-05-05 19:53 33.94645 -118.44025 1098 ft 155 kts 259°
2026-05-05 19:54 33.94506 -118.45321 1955 ft 157 kts 260°
2026-05-05 19:54 33.94350 -118.46699 2512 ft 177 kts 261°
2026-05-05 19:54 33.94172 -118.48262 2954 ft 200 kts 261°
2026-05-05 19:54 33.93980 -118.50022 3304 ft 224 kts 265°
2026-05-05 19:55 33.94093 -118.51994 3739 ft 249 kts 275°
2026-05-05 19:55 33.93871 -118.54088 4395 ft 260 kts 247°
2026-05-05 19:55 33.92796 -118.55856 5155 ft 268 kts 219°
2026-05-05 19:55 33.91114 -118.56837 5944 ft 275 kts 191°
2026-05-05 19:56 33.89199 -118.56783 6697 ft 281 kts 163°
2026-05-05 19:56 33.87496 -118.55699 7423 ft 284 kts 136°
2026-05-05 19:56 33.86346 -118.53783 8152 ft 286 kts 109°
2026-05-05 19:56 33.86020 -118.51450 8904 ft 285 kts 82°
2026-05-05 19:57 33.86590 -118.49191 9664 ft 283 kts 56°
2026-05-05 19:57 33.87403 -118.47927 10150 ft 284 kts 43°
2026-05-05 19:57 33.89543 -118.45860 10428 ft 314 kts 33°
2026-05-05 19:57 33.91191 -118.43990 10691 ft 336 kts 47°
2026-05-05 19:58 33.92707 -118.41794 11300 ft 345 kts 48°
2026-05-05 19:58 33.94252 -118.39553 11973 ft 351 kts 48°
2026-05-05 19:58 33.95825 -118.37266 12643 ft 356 kts 47°
2026-05-05 19:58 33.97416 -118.34951 13300 ft 361 kts 48°
2026-05-05 19:59 33.99028 -118.32606 13924 ft 366 kts 48°
2026-05-05 19:59 34.00662 -118.30219 14502 ft 371 kts 50°
2026-05-05 19:59 34.02154 -118.27662 15107 ft 374 kts 53°
2026-05-05 19:59 34.03628 -118.25061 15716 ft 377 kts 53°
2026-05-05 20:00 34.05111 -118.22447 16331 ft 380 kts 53°
2026-05-05 20:00 34.06607 -118.19805 16924 ft 382 kts 53°
2026-05-05 20:00 34.08093 -118.17178 17523 ft 385 kts 53°
2026-05-05 20:00 34.09607 -118.14499 18149 ft 388 kts 53°
2026-05-05 20:01 34.11132 -118.11801 18772 ft 390 kts 54°
2026-05-05 20:01 34.12667 -118.09081 19386 ft 393 kts 54°
2026-05-05 20:01 34.14213 -118.06342 19970 ft 395 kts 54°
2026-05-05 20:01 34.15763 -118.03593 20519 ft 397 kts 53°
2026-05-05 20:02 34.17319 -118.00826 21057 ft 399 kts 54°
2026-05-05 20:02 34.18883 -117.98046 21582 ft 401 kts 54°
2026-05-05 20:02 34.20453 -117.95251 22070 ft 404 kts 54°
2026-05-05 20:02 34.22037 -117.92434 22539 ft 406 kts 54°
2026-05-05 20:03 34.23626 -117.89608 23029 ft 408 kts 54°
2026-05-05 20:03 34.25225 -117.86761 23519 ft 410 kts 54°
2026-05-05 20:03 34.26835 -117.83892 23922 ft 412 kts 54°
2026-05-05 20:03 34.28447 -117.81018 24296 ft 414 kts 54°
2026-05-05 20:04 34.30045 -117.78164 24626 ft 416 kts 54°
2026-05-05 20:04 34.31668 -117.75254 24982 ft 418 kts 54°
2026-05-05 20:04 34.33297 -117.72325 25321 ft 420 kts 54°
2026-05-05 20:04 34.34931 -117.69383 25667 ft 422 kts 54°
2026-05-05 20:05 34.36602 -117.66449 25996 ft 424 kts 53°
2026-05-05 20:05 34.38324 -117.63539 26321 ft 426 kts 52°
2026-05-05 20:05 34.40082 -117.60639 26647 ft 428 kts 52°
2026-05-05 20:05 34.41863 -117.57729 26979 ft 430 kts 52°
2026-05-05 20:06 34.43645 -117.54808 27307 ft 432 kts 52°
2026-05-05 20:06 34.45424 -117.51859 27625 ft 434 kts 52°
2026-05-05 20:06 34.47202 -117.48884 27925 ft 437 kts 52°
2026-05-05 20:06 34.48960 -117.45925 28223 ft 439 kts 53°
2026-05-05 20:07 34.50743 -117.42910 28512 ft 440 kts 53°
2026-05-05 20:07 34.52535 -117.39878 28790 ft 442 kts 53°
2026-05-05 20:07 34.54333 -117.36835 28990 ft 443 kts 53°
2026-05-05 20:08 34.57869 -117.30850 29024 ft 433 kts 53°
2026-05-05 20:08 34.61373 -117.24926 29020 ft 431 kts 53°
2026-05-05 20:09 34.64874 -117.19010 28999 ft 431 kts 53°
2026-05-05 20:09 34.68374 -117.13082 28981 ft 431 kts 53°
2026-05-05 20:10 34.71866 -117.07152 28940 ft 431 kts 53°
2026-05-05 20:10 34.75333 -117.01252 28948 ft 431 kts 53°
2026-05-05 20:11 34.78818 -116.95302 28950 ft 431 kts 53°
2026-05-05 20:11 34.82304 -116.89350 28972 ft 432 kts 53°
2026-05-05 20:12 34.85792 -116.83406 28975 ft 432 kts 53°
2026-05-05 20:12 34.89246 -116.77481 28970 ft 431 kts 53°
2026-05-05 20:13 34.92707 -116.71516 28969 ft 431 kts 54°
2026-05-05 20:13 34.96126 -116.65509 28955 ft 431 kts 54°
2026-05-05 20:14 34.99511 -116.59481 28947 ft 430 kts 54°
2026-05-05 20:14 35.02889 -116.53461 28922 ft 430 kts 54°
2026-05-05 20:15 35.06271 -116.47454 28929 ft 429 kts 54°
2026-05-05 20:15 35.09651 -116.41451 28922 ft 431 kts 53°
2026-05-05 20:16 35.13687 -116.35936 28922 ft 438 kts 46°
2026-05-05 20:16 35.15780 -116.33238 28671 ft 436 kts 46°
2026-05-05 20:16 35.17843 -116.30574 28256 ft 428 kts 46°
2026-05-05 20:16 35.19864 -116.27959 27842 ft 424 kts 46°
2026-05-05 20:17 35.21889 -116.25335 27432 ft 420 kts 46°
2026-05-05 20:17 35.23879 -116.22731 27035 ft 417 kts 47°
2026-05-05 20:17 35.25823 -116.20107 26637 ft 415 kts 48°
2026-05-05 20:17 35.27706 -116.17514 26260 ft 412 kts 48°
2026-05-05 20:18 35.29593 -116.14889 25879 ft 409 kts 48°
2026-05-05 20:18 35.31468 -116.12283 25505 ft 407 kts 48°
2026-05-05 20:18 35.33340 -116.09697 25136 ft 404 kts 48°
2026-05-05 20:18 35.35205 -116.07132 24771 ft 402 kts 48°
2026-05-05 20:19 35.37059 -116.04582 24411 ft 399 kts 48°
2026-05-05 20:19 35.38899 -116.02051 24060 ft 397 kts 48°
2026-05-05 20:19 35.40732 -115.99536 23706 ft 394 kts 48°
2026-05-05 20:19 35.42553 -115.97034 23328 ft 392 kts 48°
2026-05-05 20:20 35.44359 -115.94543 22851 ft 390 kts 48°
2026-05-05 20:20 35.46155 -115.92068 22310 ft 387 kts 48°
2026-05-05 20:20 35.47937 -115.89606 21790 ft 385 kts 48°
2026-05-05 20:20 35.49134 -115.87950 21427 ft 383 kts 48°
2026-05-05 20:21 35.50874 -115.85541 20902 ft 381 kts 48°
2026-05-05 20:21 35.52647 -115.83082 20393 ft 379 kts 48°
2026-05-05 20:21 35.54383 -115.80670 19895 ft 376 kts 48°
2026-05-05 20:21 35.56092 -115.78300 19409 ft 374 kts 48°
2026-05-05 20:22 35.57836 -115.75887 18923 ft 372 kts 48°
2026-05-05 20:22 35.59536 -115.73537 18433 ft 361 kts 47°
2026-05-05 20:22 35.61184 -115.71289 17935 ft 347 kts 47°
2026-05-05 20:22 35.62764 -115.69162 17402 ft 336 kts 47°
2026-05-05 20:23 35.64319 -115.67076 16875 ft 326 kts 47°
2026-05-05 20:23 35.65826 -115.65052 16361 ft 318 kts 47°
2026-05-05 20:23 35.67308 -115.63056 15854 ft 313 kts 47°
2026-05-05 20:23 35.68770 -115.61081 15351 ft 311 kts 47°
2026-05-05 20:24 35.70222 -115.59115 14868 ft 311 kts 47°
2026-05-05 20:24 35.71674 -115.57147 14633 ft 309 kts 47°
2026-05-05 20:24 35.73252 -115.55361 14486 ft 308 kts 35°
2026-05-05 20:24 35.75079 -115.53998 14329 ft 308 kts 29°
2026-05-05 20:25 35.76947 -115.52701 14173 ft 307 kts 29°
2026-05-05 20:25 35.78810 -115.51399 14017 ft 307 kts 29°
2026-05-05 20:25 35.80661 -115.50103 13862 ft 306 kts 30°
2026-05-05 20:25 35.82510 -115.48805 13705 ft 305 kts 30°
2026-05-05 20:26 35.84353 -115.47513 13534 ft 304 kts 29°
2026-05-05 20:26 35.86191 -115.46226 13377 ft 303 kts 29°
2026-05-05 20:26 35.88024 -115.44943 13226 ft 303 kts 30°
2026-05-05 20:26 35.89830 -115.43671 13078 ft 302 kts 29°
2026-05-05 20:27 35.91657 -115.42388 12839 ft 302 kts 29°
2026-05-05 20:27 35.93485 -115.41111 12463 ft 301 kts 29°
2026-05-05 20:27 35.95305 -115.39839 12120 ft 299 kts 29°
2026-05-05 20:27 35.97109 -115.38579 11783 ft 297 kts 29°
2026-05-05 20:28 35.98870 -115.37258 11443 ft 295 kts 38°
2026-05-05 20:28 36.00270 -115.35433 11111 ft 294 kts 56°
2026-05-05 20:28 36.01137 -115.33164 10802 ft 292 kts 74°
2026-05-05 20:28 36.01395 -115.30705 10559 ft 293 kts 91°
2026-05-05 20:29 36.01278 -115.28172 10301 ft 292 kts 93°
2026-05-05 20:29 36.01153 -115.25674 10062 ft 291 kts 93°
2026-05-05 20:29 36.01028 -115.23184 9810 ft 290 kts 93°
2026-05-05 20:29 36.00907 -115.20695 9539 ft 289 kts 93°
2026-05-05 20:30 36.00787 -115.18243 9382 ft 281 kts 93°
2026-05-05 20:30 36.00667 -115.15889 9268 ft 269 kts 93°
2026-05-05 20:30 36.00553 -115.13626 9148 ft 259 kts 93°
2026-05-05 20:30 36.00443 -115.11441 9034 ft 252 kts 93°
2026-05-05 20:31 36.00333 -115.09284 8849 ft 251 kts 93°
2026-05-05 20:31 36.00224 -115.07171 8598 ft 249 kts 94°
2026-05-05 20:31 36.00114 -115.05036 8390 ft 249 kts 94°
2026-05-05 20:31 36.00004 -115.02905 8159 ft 248 kts 94°
2026-05-05 20:32 35.99899 -115.00785 7915 ft 248 kts 92°
2026-05-05 20:32 35.99844 -114.98630 7372 ft 254 kts 92°
2026-05-05 20:32 35.99794 -114.96438 7026 ft 252 kts 92°
2026-05-05 20:32 35.99874 -114.94319 6921 ft 247 kts 78°
2026-05-05 20:33 36.00533 -114.92399 6731 ft 242 kts 54°
2026-05-05 20:33 36.01744 -114.90951 6469 ft 243 kts 30°
2026-05-05 20:33 36.03322 -114.90269 6130 ft 242 kts
2026-05-05 20:33 36.04965 -114.90514 5778 ft 239 kts 337°
2026-05-05 20:34 36.06360 -114.91601 5416 ft 238 kts 313°
2026-05-05 20:34 36.07204 -114.93316 5097 ft 233 kts 284°
2026-05-05 20:34 36.07370 -114.95282 4808 ft 230 kts 269°
2026-05-05 20:34 36.07365 -114.97259 4513 ft 230 kts 269°
2026-05-05 20:35 36.07363 -114.99236 4216 ft 229 kts 269°
2026-05-05 20:35 36.07363 -115.01199 3910 ft 225 kts 269°
2026-05-05 20:35 36.07365 -115.03039 3639 ft 212 kts 269°
2026-05-05 20:35 36.07366 -115.04782 3394 ft 196 kts 269°
2026-05-05 20:36 36.07366 -115.06388 3136 ft 180 kts 269°
2026-05-05 20:36 36.07367 -115.07875 2874 ft 162 kts 268°
2026-05-05 20:36 36.07367 -115.09208 2653 ft 153 kts 268°
2026-05-05 20:36 36.07373 -115.10506 2470 ft 149 kts 266°
2026-05-05 20:37 36.07366 -115.11781 2315 ft 148 kts 266°
2026-05-05 20:37 36.07365 -115.13045 2198 ft 144 kts 265°
2026-05-05 20:37 36.07365 -115.14114 2189 ft 101 kts 270°
2026-05-05 20:37 36.07368 -115.14711 2193 ft 38 kts 274°
2026-05-05 20:38 36.07424 -115.14948 2189 ft 21 kts 296°
2026-05-05 20:38 36.07484 -115.15072 2188 ft 13 kts 307°
2026-05-05 20:38 36.07525 -115.15124 2188 ft 5 kts 321°
2026-05-05 20:38 36.07535 -115.15133 2192 ft 0 kts 327°
2026-05-05 20:40 36.07574 -115.15159 2192 ft 11 kts 336°
2026-05-05 20:40 36.07653 -115.15204 2190 ft 13 kts 334°
2026-05-05 20:40 36.07729 -115.15250 2193 ft 12 kts 334°
2026-05-05 20:41 36.07799 -115.15236 2190 ft 12 kts 58°
2026-05-05 20:41 36.07806 -115.15088 2188 ft 20 kts 88°
2026-05-05 20:41 36.07792 -115.14912 2189 ft 22 kts 95°
2026-05-05 20:41 36.07780 -115.14717 2188 ft 24 kts 94°
2026-05-05 20:42 36.07767 -115.14509 2188 ft 25 kts 95°
2026-05-05 20:42 36.07755 -115.14299 2188 ft 22 kts 92°
2026-05-05 20:42 36.07784 -115.14161 2188 ft 15 kts 18°
2026-05-05 20:42 36.07880 -115.14155 2189 ft 13 kts 17°
2026-05-05 20:43 36.07910 -115.14073 2189 ft 10 kts 89°
2026-05-05 20:43 36.07945 -115.14025 2188 ft 6 kts 26°
2026-05-05 20:43 36.07972 -115.14009 2189 ft 2 kts 25°
2026-05-05 20:43 36.07977 -115.14006 2192 ft 0 kts 25°
2026-05-05 20:44 36.07982 -115.14003 2190 ft 0 kts 25°